Skip Page Navigation
NASA JPL Caltech
NASA Logo - Jet Propulsion Laboratory + View the NASA Portal
+ Center for Near-Earth Object Studies
JPL Home Earth Solar System Stars & Galaxies Technology
JPL Solar System Dynamics
BODIES ORBITS EPHEMERIDES TOOLS PHYSICAL DATA DISCOVERY FAQ SITE MAP
JPL Small-Body Database Browser
Search: [ help ]  
91014 (1998 DN12)
Classification: Main-belt Asteroid          SPK-ID: 2091014
Ephemeris | Orbit Diagram | Orbital Elements | Mission Design | Physical Parameters | Discovery Circumstances | Close-Approach Data ]

[ show orbit diagram ]
Orbital Elements at Epoch 2459000.5 (2020-May-31.0) TDB
Reference: JPL 18 (heliocentric ecliptic J2000)
 Element Value Uncertainty (1-sigma)   Units 
e .113601395397858 5.7143e-08  
a 2.612624784975116 1.4439e-08 au
q 2.315826963750914 1.4842e-07 au
i 3.672603504124765 4.6488e-06 deg
node 97.6904596645778 0.00010284 deg
peri 316.0523148900034 0.00010629 deg
M 207.6496222353379 2.5331e-05 deg
tp 2459653.262241869990
(2022-Mar-14.76224187)
0.00010828 TDB
period 1542.460284779837
4.22
1.2787e-05
3.501e-08
d
yr
n .2333933674353143 1.9348e-09 deg/d
Q 2.909422606199318 1.6079e-08 au
  Orbit Determination Parameters
   # obs. used (total)      572  
   data-arc span      7768 days (21.27 yr)  
   first obs. used      1998-02-23  
   last obs. used      2019-06-01  
   planetary ephem.      DE431  
   SB-pert. ephem.      SB431-N16  
   condition code      0  
   norm. resid. RMS      .58013  
   source      ORB  
   producer      Otto Matic  
   solution date      2020-Feb-23 22:22:05  

Additional Information
 Earth MOID = 1.32892 au 
 Jupiter MOID = 2.40481 au 
 T_jup = 3.397 
[ hide covariance matrix ]
Orbital Elements at Epoch 2456906.5 (2014-Sep-06.0) TDB
Reference: JPL 18 (heliocentric ecliptic J2000)
 Element Value Uncertainty (1-sigma)   Units 
e .1142861260281274 5.6687e-08  
q 2.314161174074275 1.4711e-07 au
tp 2456573.009853401858
(2013-Oct-07.50985340)
0.0001124 TDB
node 97.7100756996668 0.00010282 deg
peri 316.8105075371624 0.00010625 deg
i 3.673029274922062 4.6497e-06 deg
  Orbit Determination Parameters
   # obs. used (total)      572  
   data-arc span      7768 days (21.27 yr)  
   first obs. used      1998-02-23  
   last obs. used      2019-06-01  
   planetary ephem.      DE431  
   SB-pert. ephem.      SB431-N16  
   condition code      0  
   norm. resid. RMS      .58013  
   source      ORB  
   producer      Otto Matic  
   solution date      2020-Feb-23 22:22:05  

Additional Information
 Jupiter MOID = 2.40481 au 
 T_jup = 3.397 
Orbit Covariance (6×6)
  e q tp node peri i
e 3.213377743028779E-15 -8.305785884151579E-15 -2.956199730180011E-12 -4.358227718695939E-14 -7.328770975344982E-13 -1.796546758823468E-16
q -8.305785884151579E-15 2.164165462434084E-14 7.266161385083783E-12 1.114369975462676E-13 1.808991767929305E-12 6.006870281703431E-16
tp -2.956199730180011E-12 7.266161385083783E-12 1.263435720100586E-8 7.155878306165445E-11 3.074341565415969E-9 -1.628476066560602E-12
node -4.358227718695939E-14 1.114369975462676E-13 7.155878306165445E-11 1.05711854272268E-8 -1.053099154900554E-8 -5.420785337399986E-11
peri -7.328770975344982E-13 1.808991767929305E-12 3.074341565415969E-9 -1.053099154900554E-8 1.128986897728142E-8 5.370670530355505E-11
i -1.796546758823468E-16 6.006870281703431E-16 -1.628476066560602E-12 -5.420785337399986E-11 5.370670530355505E-11 2.161983455733888E-11

Ephemeris | Orbit Diagram | Orbital Elements | Mission Design | Physical Parameters | Discovery Circumstances | Close-Approach Data ]

Physical Parameter Table
Parameter Symbol Value Units Sigma Reference Notes
absolute magnitude H 15.7   n/a MPO474788  

91014 (1998 DN12)          Discovered 1998-Feb-23 by Spacewatch at Kitt Peak
Reference: 20041028/Numbers.arcLast Updated: 2004-10-29

[ show close-approach data ]
Alternate Designations
 1998 DN12 = 2000 SP73 
Ephemeris | Orbit Diagram | Orbital Elements | Mission Design | Physical Parameters | Discovery Circumstances | Close-Approach Data ]
ABOUT SSD CREDITS/AWARDS PRIVACY/COPYRIGHT GLOSSARY LINKS
FirstGov 2020-Oct-28 18:19 UT
(server date/time)  
NASA Home Page
Site Manager:   Ryan S. Park
Webmaster  Alan B. Chamberlin